Regional Weather Roundup
Issued by NWS

Home | Current Version | Previous Version | Graphics & Text | Print | Product List | Glossary On
Versions: 1 2 3 4 5 6 7 8 9 10 11 12 13 14 15 16 17 18 19 20 21 22 23 24 25 26 27 28 29 30 31 32 33 34 35 36 37 38 39 40 41 42 43 44 45 46 47 48 49 50
000
ASUS45 KCYS 271710
RWRWY

WYOMING REGIONAL WEATHER ROUNDUP
NATIONAL WEATHER SERVICE CHEYENNE WY
1100 AM MDT SAT AUG 27 2016

NOTE:  "FAIR" INDICATES FEW OR NO CLOUDS BELOW 12,000 FEET
WITH NO SIGNIFICANT WEATHER AND/OR OBSTRUCTIONS TO VISIBILITY.

WYZ001-271800-
YELLOWSTONE NATIONAL PARK

CITY           SKY/WX    TMP DP  RH WIND       PRES   REMARKS
LK YELLOWSTONE   N/A     59  29  31 VRB6      30.20F
W YELLOWSTONE  NOT AVBL

$$
WYZ002>013-054>058-071-098>099-271800-
NORTHERN WYOMING

CITY           SKY/WX    TMP DP  RH WIND       PRES   REMARKS
JACKSON        SUNNY     57  30  35 SE3       30.16F
CODY           FAIR      66  34  30 W9G17     30.01S
GREYBULL       FAIR      68  42  38 VRB6      29.97F
WORLAND        FAIR      70  47  43 VRB5      29.98F
SHERIDAN       FAIR      73  50  44 NE5       29.93F
BUFFALO        FAIR      71  40  32 SE9       29.99F
GILLETTE       FAIR      74  44  34 S12       29.96F
HULETT         FAIR      70  50  49 SW17      29.99F
NEWCASTLE      FAIR      64  52  63 SE12      30.04S

$$
WYZ014>020-022>026-101>103-271800-
CENTRAL WYOMING

CITY           SKY/WX    TMP DP  RH WIND       PRES   REMARKS
BIG PINEY      FAIR      60  32  34 E5        30.22S
PINEDALE       FAIR      59  32  36 CALM      30.23S
DUBOIS         FAIR      64  25  22 NW14      30.16R
LANDER         FAIR      67  39  35 CALM      30.08F
RIVERTON       FAIR      65  42  43 SE3       30.09F
CASPER         FAIR      69  42  37 SW21G29   30.08F
DOUGLAS        FAIR      73  47  39 NW7       30.06F

$$
WYZ021-027>030-104>119-271800-
SOUTHERN WYOMING

CITY           SKY/WX    TMP DP  RH WIND       PRES   REMARKS
EVANSTON       FAIR      68  33  27 SW13G22   30.23S
FORT BRIDGER   FAIR      71  29  20 W10G17    30.25S
ROCK SPRINGS   FAIR      67  31  26 W16       30.22S
DIXON          FAIR      68  37  32 S15G24    30.26S
RAWLINS        FAIR      69  34  27 SW20G25   30.21S
SARATOGA       FAIR      68  32  26 SW14G22   30.23S
LARAMIE        FAIR      67  36  31 SW21G26   30.20F
CHEYENNE       FAIR      74  31  20 NW10      30.15F
TORRINGTON     FAIR      70  51  51 CALM      30.04F
PINE BLUFFS    FAIR      73  37  27 CALM      30.12S

$$



USA.gov is the U.S. government's official web portal to all federal, state and local government web resources and services.